Theta_e
301 301 302 300 300 300 300 300 300 300 300 300 301 301 302 302 300 302 302 301 301 301 302 301 302 302 302 304 304 305 300 301 302 302 302 300 300 301 301 301 301 302 302 303 303
305 307 308 307 304 301 301 301 300 300 301 300 301 301 302 302 300 301 301 300 301 301 302 302 302 302 302 302 303 300 297 300 299 299 299 300 300 301 301 301 302 303 302 303 303
309 309 310 310 308 305 302 302 300 301 301 300 300 301 301 305 302 301 301 301 301 302 302 302 303 303 303 302 302 301 300 300 301 302 302 301 301 302 301 301 302 302 303 303 303
311 312 311 311 312 311 305 304 300 301 300 300 300 299 302 301 302 301 301 301 302 302 302 303 303 303 301 302 303 300 302 302 301 303 303 302 302 301 301 303 303 303 303 303 302
314 314 314 314 313 312 310 307 302 302 301 299 301 301 302 300 300 301 301 301 302 302 303 304 304 303 301 302 303 302 302 302 303 303 303 303 302 301 302 303 303 303 303 303 302
315 315 315 315 314 314 313 310 302 304 304 300 299 300 301 300 300 301 301 301 302 302 303 303 303 304 303 303 302 302 302 302 303 303 303 302 301 301 303 304 303 303 303 303 303
315 316 316 316 315 315 314 312 305 307 304 299 299 299 300 298 299 301 301 302 302 302 303 304 303 304 304 303 302 302 302 300 303 303 302 301 300 299 302 302 302 302 303 302 302
315 316 316 316 316 315 315 315 311 304 305 299 299 300 299 299 299 301 301 302 302 301 301 303 304 304 304 304 302 298 298 298 301 302 302 301 300 299 302 302 301 301 302 301 301
315 315 315 315 316 315 315 314 312 304 309 300 299 301 299 299 299 301 302 301 302 301 302 303 305 303 301 301 298 295 294 300 300 301 301 302 300 300 302 301 300 300 300 301 300
315 315 315 315 315 315 315 314 311 306 309 304 300 301 299 298 299 301 302 302 303 304 303 304 305 296 294 295 296 295 297 299 299 300 301 300 300 299 300 299 299 300 300 299 299
315 315 316 315 316 315 314 314 312 310 309 304 299 298 298 298 300 300 301 302 303 302 300 301 298 296 300 299 298 299 300 299 298 299 298 298 297 298 298 298 298 299 299 299 298
316 315 316 315 314 313 314 313 309 307 304 301 296 296 297 297 300 300 300 301 299 295 298 296 297 299 300 300 301 299 294 294 297 298 298 297 297 298 297 297 299 298 298 298 297
316 316 316 315 313 313 311 311 310 306 301 301 297 295 296 298 299 300 300 301 296 293 292 295 301 300 300 300 299 299 295 294 299 298 296 295 296 296 298 298 298 298 298 297 296
314 314 315 313 311 310 311 310 308 306 299 303 297 297 297 298 300 300 299 300 300 294 297 296 301 300 300 300 298 295 298 299 299 293 292 295 295 296 297 298 296 297 297 297 297
308 315 312 307 307 309 308 310 309 304 303 298 297 296 298 299 300 300 300 300 301 298 293 296 301 300 299 300 297 298 298 298 295 286 293 290 291 296 296 298 297 296 296 297 295
306 306 306 306 307 307 309 309 308 301 301 297 296 296 297 299 299 300 300 301 299 299 298 294 299 298 298 298 298 296 293 291 290 285 289 287 290 296 295 296 296 296 297 296 295
305 306 308 308 307 307 308 309 302 303 298 299 296 296 296 297 298 298 298 299 298 294 290 294 297 297 297 298 296 293 285 287 289 286 292 280 291 295 294 294 294 294 297 295 295
306 308 308 308 307 307 308 301 296 294 296 300 296 298 299 296 298 297 297 297 297 294 287 289 294 292 297 297 292 294 287 288 286 288 289 283 292 294 293 295 296 296 295 294 296
308 308 307 307 307 306 307 300 298 297 304 300 300 296 294 298 294 293 297 295 298 293 292 291 292 295 296 298 294 291 291 290 284 279 285 286 288 292 293 289 292 293 293 294 296
309 307 308 307 307 306 304 305 299 303 297 298 305 300 295 292 297 291 295 297 299 296 292 292 292 290 294 297 293 290 291 291 286 288 285 285 280 291 288 289 288 290 293 296 296
308 308 306 306 307 307 306 302 303 305 297 298 302 298 300 295 293 292 295 298 297 295 294 288 287 290 295 290 290 294 288 288 286 289 287 286 290 285 287 286 285 287 295 296 296
307 305 305 306 305 304 305 303 301 299 298 298 298 300 301 295 294 290 296 296 297 296 295 294 291 289 292 293 292 291 288 292 291 286 286 290 293 286 284 279 284 290 294 296 295
307 306 305 305 303 304 302 301 299 299 297 297 297 297 295 294 296 297 297 298 297 295 295 296 287 287 294 292 293 292 293 293 289 291 289 290 294 281 277 282 290 290 294 293 293
305 303 302 302 301 301 302 304 304 298 297 297 297 296 295 293 295 296 297 296 297 297 297 297 293 291 296 293 285 292 295 296 296 289 294 294 296 296 295 293 290 290 293 293 292
303 303 302 300 300 301 303 303 303 302 296 296 294 296 295 295 295 293 296 296 296 297 297 293 289 292 291 290 286 293 293 294 295 296 293 297 289 294 294 292 292 293 293 294 292
302 302 302 299 300 299 302 303 304 302 297 298 294 298 296 296 299 297 296 296 295 295 295 293 288 285 284 293 293 291 293 294 293 294 294 294 294 295 295 293 290 292 293 294 292
299 301 303 303 300 300 302 302 301 300 301 302 297 296 296 297 298 298 296 296 296 295 296 293 290 288 289 286 285 292 293 292 288 283 291 292 293 291 290 283 287 292 292 293 294
Wind_Speed
18 20 20 19 16 15 14 13 12 10 8 5 3 2 1 2 14 6 6 10 12 11 7 4 3 6 7 6 5 3 4 2 3 5 2 3 4 1 3 6 4 2 1 1 5
19 20 21 20 18 15 14 13 12 11 9 6 6 5 3 1 4 16 12 10 9 9 4 2 5 5 6 4 4 5 3 4 1 2 2 2 1 4 2 3 5 6 9 6 7
18 19 20 22 22 17 13 13 11 12 9 6 6 6 6 1 2 12 13 10 8 7 3 3 5 5 5 5 5 2 3 3 2 2 1 2 3 2 1 3 7 6 13 10 11
16 17 19 20 21 20 16 13 9 10 8 5 5 4 4 3 1 10 11 10 9 7 2 2 3 3 4 4 2 4 3 2 2 1 2 2 4 4 9 7 12 12 10 10 12
15 16 17 19 19 19 17 15 9 9 9 5 6 5 3 4 6 9 11 10 8 7 4 6 7 5 5 3 2 3 2 3 2 7 6 5 5 5 15 7 6 5 6 9 11
14 15 17 18 18 19 19 17 8 10 10 4 3 5 2 4 5 11 11 8 8 10 13 8 7 10 7 3 3 2 3 6 2 2 3 3 4 4 5 2 6 11 11 10 14
12 14 16 17 18 18 19 16 9 9 11 6 3 3 7 4 5 10 9 7 8 8 11 13 8 3 4 3 4 2 3 4 3 3 2 5 6 7 7 3 12 18 16 13 15
12 12 14 16 18 16 19 18 12 7 11 5 3 0 3 5 6 9 7 7 7 6 7 8 7 8 5 5 5 5 4 4 2 4 2 5 9 7 8 11 23 20 20 19 14
13 13 15 16 18 15 19 20 12 5 11 4 2 0 1 4 6 9 8 5 4 5 6 5 4 5 4 4 4 7 1 1 8 2 2 2 9 17 18 21 26 27 20 16 13
11 14 15 16 16 17 20 19 12 2 11 2 3 1 2 5 4 6 7 4 2 3 2 3 4 4 4 5 2 3 2 2 5 3 4 7 18 18 21 17 24 25 21 17 14
12 12 15 18 15 19 19 15 10 3 14 3 4 1 3 6 3 4 10 3 2 3 4 5 5 2 4 3 4 4 2 4 5 4 5 6 14 23 26 17 18 16 17 16 13
11 12 13 17 18 18 15 9 8 7 7 3 3 2 3 7 3 6 9 4 4 2 4 6 1 2 3 3 2 3 2 5 6 2 4 6 21 22 11 8 7 12 15 13 11
14 14 14 18 18 12 15 13 13 12 3 2 1 2 1 4 2 7 7 3 5 4 3 4 1 4 2 1 2 3 4 3 4 6 3 8 8 5 2 3 6 11 13 11 10
15 18 14 19 12 14 11 14 13 12 4 2 2 2 2 4 2 3 5 3 4 2 3 2 2 2 2 2 4 2 3 1 3 5 2 6 5 6 4 5 5 14 14 11 13
14 14 20 17 11 10 10 12 13 5 4 2 2 2 4 2 4 2 4 2 3 2 5 4 2 2 1 3 4 3 2 1 3 4 4 4 3 8 3 6 9 14 18 13 14
12 13 12 11 8 6 7 10 9 6 5 3 2 2 4 4 3 4 2 3 2 3 1 4 2 2 2 2 1 2 4 5 4 4 3 3 4 7 4 5 4 5 19 15 17
12 11 8 8 6 5 5 6 5 4 2 5 2 3 2 3 4 5 3 2 2 4 4 4 2 1 1 2 3 6 6 4 6 4 5 2 1 11 8 6 6 9 15 16 17
10 6 5 4 6 6 4 4 3 3 5 2 1 1 1 4 2 4 2 3 1 4 3 3 6 1 1 2 4 2 5 5 5 3 5 3 6 6 5 10 15 16 17 19 19
5 6 6 6 4 3 3 2 7 6 2 3 2 5 5 1 2 4 2 3 4 5 6 3 5 1 3 2 3 2 2 2 6 1 3 3 8 11 3 7 11 19 20 23 21
5 6 10 8 4 3 3 5 3 2 1 1 3 3 3 3 3 4 1 3 2 1 2 3 3 1 2 4 6 5 3 4 3 2 5 5 6 7 7 10 6 10 26 29 23
7 5 5 5 6 4 3 5 3 4 2 3 2 2 4 1 4 2 4 2 2 3 4 4 3 5 2 4 7 2 2 4 4 4 4 3 6 8 10 8 9 12 21 19 24
5 2 3 6 2 2 2 3 2 3 4 4 2 5 5 6 4 3 5 6 6 8 4 3 3 3 9 2 3 4 6 5 4 6 3 2 10 6 8 5 11 22 23 25 30
4 5 8 12 3 4 2 2 3 3 4 3 3 4 3 6 1 5 3 1 9 6 6 6 1 3 7 4 3 3 5 4 2 2 7 4 9 3 4 8 17 20 30 32 31
3 1 5 11 5 4 3 4 5 4 4 4 2 4 3 1 3 3 3 3 7 5 5 7 4 7 6 6 3 3 5 8 7 3 6 15 26 28 25 17 19 23 30 32 24
7 5 4 3 5 6 5 1 5 4 4 6 3 7 6 4 1 5 4 2 4 6 5 4 5 2 5 6 6 14 18 12 15 17 11 25 12 24 22 17 25 34 37 23 15
6 6 6 3 2 8 11 9 12 8 7 4 5 4 8 6 10 8 6 5 5 2 5 3 3 2 4 7 6 11 20 16 20 22 18 24 26 34 39 34 29 25 21 20 17
20 23 8 7 6 5 6 11 9 9 12 14 13 5 7 19 16 10 9 2 5 8 7 5 4 2 5 4 7 9 11 9 5 4 11 15 25 12 13 9 18 23 18 18 16
Wind_Direction
47 46 40 36 35 38 34 34 33 36 33 37 22 360 305 36 45 43 24 7 7 12 21 65 78 109 116 94 79 104 67 192 181 147 169 350 19 255 292 278 274 257 183 271 286
50 46 42 36 33 31 30 32 29 23 29 38 43 41 18 344 22 34 27 10 10 8 36 91 78 125 79 69 44 75 108 191 109 115 146 293 304 305 346 275 274 249 230 320 291
48 42 39 35 32 28 26 26 30 24 30 45 40 38 23 324 39 12 15 13 12 16 29 85 94 87 77 58 30 81 139 169 167 133 237 233 258 261 261 276 215 229 274 278 291
47 39 31 28 27 25 21 18 22 27 32 32 13 354 8 69 73 5 14 15 13 17 34 81 142 79 71 71 47 111 83 103 161 182 284 250 293 265 225 255 303 285 284 280 256
38 36 30 23 20 20 16 10 18 22 12 19 28 13 33 68 48 19 14 19 25 36 110 99 84 90 102 113 122 70 2 334 303 283 268 265 260 269 267 289 284 253 258 283 257
31 26 22 19 18 16 13 10 17 12 355 352 357 18 41 76 28 23 17 25 45 67 68 85 90 103 102 75 70 23 326 307 293 298 283 286 273 313 226 212 309 285 276 267 253
21 19 16 11 9 10 6 3 355 358 1 360 13 114 66 72 37 22 18 33 56 77 78 73 81 92 104 92 62 29 40 358 13 341 345 334 289 222 211 283 304 299 276 274 281
2 2 4 4 0 1 2 353 350 336 2 13 27 49 99 38 33 22 32 49 62 90 78 76 89 74 62 101 34 42 49 14 317 347 26 64 277 269 258 296 307 294 289 279 259
348 349 348 350 355 355 354 349 341 315 -0 3 6 282 66 11 16 21 31 50 70 90 78 76 76 75 68 69 21 18 222 330 321 1 263 176 272 268 285 300 296 294 281 258 230
332 338 341 343 344 349 349 347 341 312 3 350 32 36 23 343 359 14 6 23 51 108 66 64 57 67 40 64 228 265 0 277 251 292 357 281 270 280 287 296 280 276 269 228 229
309 315 325 329 333 337 346 352 353 322 341 354 318 306 318 343 352 8 4 5 33 69 45 17 68 164 167 144 132 136 214 248 259 284 306 254 278 283 297 290 275 259 225 220 237
296 304 322 329 332 335 345 19 8 319 310 314 301 282 315 351 342 7 356 27 36 71 339 20 136 188 135 135 130 122 133 271 284 309 341 298 292 289 281 265 248 211 200 217 257
290 308 315 320 331 338 350 356 347 345 291 301 300 311 328 353 10 352 14 36 79 60 31 136 56 129 105 57 85 219 179 239 249 329 283 321 295 325 337 271 238 214 214 231 286
301 304 311 320 325 331 337 336 344 344 58 297 7 20 340 343 7 14 20 37 45 160 159 199 326 147 73 258 129 301 174 317 302 40 295 31 284 300 302 290 229 218 224 250 292
314 298 304 310 311 325 326 331 338 347 6 303 343 317 345 23 331 23 11 17 125 155 85 260 168 172 123 234 156 210 18 353 88 93 37 339 60 273 331 281 251 234 235 258 298
285 291 298 311 324 326 322 328 332 40 263 328 315 345 12 22 9 338 6 42 90 113 97 230 298 180 198 44 308 18 56 40 55 88 23 258 117 276 235 217 287 269 236 263 299
295 298 319 336 339 332 327 334 30 137 352 296 332 34 127 317 349 24 355 330 180 45 344 329 262 356 142 76 25 61 49 335 352 7 227 312 322 249 261 251 231 251 254 270 297
290 288 306 329 336 344 347 52 110 243 233 134 271 26 64 13 23 335 300 290 161 96 101 117 328 104 24 147 173 65 142 148 241 277 274 352 238 250 235 282 272 258 261 274 294
281 281 279 303 290 339 2 81 210 203 168 179 60 64 320 337 182 18 232 220 204 171 158 123 285 319 38 79 93 255 56 164 98 89 23 245 288 288 296 288 260 255 261 270 288
236 287 264 265 237 201 94 256 236 239 150 108 177 152 198 274 356 53 301 220 162 128 134 182 348 296 279 92 34 135 155 52 11 324 291 282 278 239 291 274 282 265 259 267 289
232 262 254 233 188 172 206 229 274 245 253 203 239 190 208 183 173 242 248 280 124 122 86 126 100 286 54 195 179 116 12 52 123 158 197 293 255 215 237 238 259 277 285 269 298
256 232 243 175 155 201 223 219 293 259 219 237 252 215 206 157 208 243 238 215 173 153 157 188 134 245 228 154 157 164 185 156 138 253 231 194 269 221 230 249 271 279 289 288 303
231 240 217 187 204 223 230 271 262 218 224 186 235 230 167 175 239 208 236 271 177 166 168 176 309 356 337 17 13 204 196 172 138 113 204 156 264 307 290 301 277 277 299 307 307
239 267 213 205 226 184 196 230 236 246 253 205 224 144 148 233 219 252 252 199 206 214 172 163 173 187 210 216 142 225 204 201 180 171 234 227 271 285 287 294 296 295 306 312 306
231 247 228 191 230 200 180 224 239 257 228 212 311 216 171 202 220 225 218 238 195 201 156 130 208 267 259 252 206 257 256 226 209 226 219 268 251 267 280 288 294 299 305 307 307
234 224 230 204 213 215 215 209 220 206 170 236 208 207 187 202 199 195 172 195 200 129 153 176 255 104 285 279 289 277 266 246 237 244 252 258 275 266 277 283 283 294 301 298 300
237 246 261 220 185 193 219 227 227 182 228 222 208 143 202 236 239 246 209 169 175 159 177 161 151 76 266 342 320 297 257 220 190 221 216 229 241 279 286 270 279 300 300 292 294